Simultaneous Nadir Overpasses (SNOs) Predictions

Prediction of SNOs between AQUA and GOES-15 Satellite Orbit:

Table of predicted SNOs for the next 14.0 days since TLE Epoch: 5/10/2013
Index Date Time (AQUA) AQUA Lat,Lon GOES-15 Lat,Lon Distance(km) Time Diff (sec)
1 05/11/2013 10:32:38 -0.22,-134.17 0.01,-135.43 142.42 80
2 05/11/2013 22:54:02 -0.82,-139.38 -0.01,-135.43 448.38 80
3 05/13/2013 10:20:22 -0.90,-131.21 0.02,-135.44 481.15 80
4 05/13/2013 22:41:45 -0.19,-136.40 -0.01,-135.43 109.64 80
5 05/15/2013 22:29:28 0.44,-133.42 -0.01,-135.43 228.77 80
6 05/16/2013 10:50:42 0.65,-138.57 0.00,-135.44 356.28 80
7 05/18/2013 10:38:24 0.06,-135.58 0.01,-135.43 18.57 80
8 05/20/2013 10:26:07 -0.61,-132.61 0.01,-135.41 318.92 80
9 05/20/2013 22:47:29 -0.52,-137.79 0.01,-135.40 272.75 80
10 05/22/2013 22:35:11 0.11,-134.81 0.01,-135.38 63.70 80




NCC Satellite Simultaneous Nadir Overpasses (SNOs) Prediction Service
